Weather Roundup
Issued by NWS Springfield, MO

Home | Current Version | Previous Version | Text Only | Print | Product List | Glossary On
Versions: 1 2 3 4 5 6 7 8 9 10 11 12 13 14 15 16 17 18 19 20 21 22 23 24 25 26 27 28 29 30 31 32 33 34 35 36 37 38 39 40 41 42 43 44 45 46 47 48 49 50
000
NZUS99 KSGF 310307
HRRSGF

HOURLY WEATHER
NATIONAL WEATHER SERVICE SPRINGFIELD MO
1000 PM CDT SAT JUL 30 2016

......SGF CWA......

CITY           SKY/WX    TMP DP  RH WIND       PRES   REMARKS
SPRINGFIELD    CLEAR     76  69  79 SE3       30.00R
JOPLIN         CLEAR     77  72  84 S7        29.99R
WEST PLAINS    PTCLDY    75  71  87 CALM      30.03R
ROLLA          CLEAR     71  67  87 CALM      29.99R
OSAGE BEACH    CLEAR     71  69  93 CALM      30.00R
BRANSON        CLOUDY    72  72 100 CALM      30.03R

......SURROUNDING SGF CWA......

CITY           SKY/WX    TMP DP  RH WIND       PRES   REMARKS
CHANUTE        CLEAR     77  70  79 SE7       29.96R
PARSONS        CLEAR     76  71  85 CALM      29.97R
COFFEYVILLE    CLEAR     76  71  85 SE6       29.95R
EMPORIA        CLEAR     77  71  82 SE8       29.95R
GROVE OK       CLEAR     73  70  88 CALM      29.98R
ROGERS AR      CLOUDY    73  71  93 SE7       30.02R
SILOAM SPRINGS CLOUDY    73  64  73 SE6       30.01R
HARRISON AR    PTCLDY    70  69  97 CALM      30.03R
NEAR YELLVILLE CLOUDY    72  68  88 CALM      29.98R

......KANSAS AND MISSOURI......

CITY           SKY/WX    TMP DP  RH WIND       PRES   REMARKS
KANSAS CTY INT CLEAR     77  65  66 SE10      29.98R
DOWNTOWN KC    CLEAR     79  66  64 E7        29.96R
COLUMBIA       CLEAR     73  67  81 CALM      29.99R
SEDALIA        CLEAR     74  67  78 CALM      30.00R
ST JOSEPH      CLEAR     71  67  87 CALM      29.96R
ST LOUIS       CLEAR     78  66  66 CALM      29.97R
SPIRIT OF STL  CLEAR     71  68  90 SW3       29.96R
KIRKSVILLE     CLEAR     68  63  84 CALM      30.00R
WICHITA        PTCLDY    80  71  74 SE10      29.93R
TOPEKA         CLEAR     76  71  85 E3        29.95R
OLATHE         CLEAR     75  67  76 SE7       29.98R

......TENNESSEE......

CITY           SKY/WX    TMP DP  RH WIND       PRES   REMARKS
MEMPHIS        CLOUDY    83  73  72 SW5       29.99R
NASHVILLE      PTCLDY    80  71  74 CALM      30.00R

......ARKANSAS.......

CITY           SKY/WX    TMP DP  RH WIND       PRES   REMARKS
FAYETTEVILLE   CLOUDY    74  72  93 SE5       30.01R
FT SMITH       MOCLDY    77  67  71 E7        29.97R
LITTLE ROCK    CLOUDY    74  70  87 S5        30.02R

......OKLAHOMA.......

CITY           SKY/WX    TMP DP  RH WIND       PRES   REMARKS
TULSA          CLOUDY    80  72  76 E7        29.93R
PONCA CITY     CLEAR     79  71  76 SE10      29.93R
MCALESTER      MOCLDY    80  71  74 CALM      29.95R
OKLAHOMA CITY  PTCLDY    82  71  69 SE8       29.92R

......IOWA............

CITY           SKY/WX    TMP DP  RH WIND       PRES   REMARKS
DES MOINES     CLEAR     76  66  71 SE7       29.97R
QUAD CITIES    CLEAR     73  66  78 E6        29.99R

......ILLINOIS........

CITY           SKY/WX    TMP DP  RH WIND       PRES   REMARKS
QUINCY         CLEAR     74  69  85 E3        29.99R
CHICAGO        MOCLDY    70  64  81 NE8       30.00S



USA.gov is the U.S. government's official web portal to all federal, state and local government web resources and services.